Hayward, WI

6:25 AM CST on February 09, 2016 (GMT -0600)
Sawyer County

Weather History for KHYR - March, 2013

Change the Weather History Date:

Friday, March 15, 2013

  Actual Average Record
Temperature  
Mean Temperature 22 °F -  
Max Temperature 30 °F 39 °F 64 °F (2012)
Min Temperature 17 °F 10 °F -6 °F (1997)
Degree Days  
Heating Degree Days 42    
Moisture  
Dew Point 18 °F    
Average Humidity 76    
Maximum Humidity 93    
Minimum Humidity 54    
Precipitation  
Precipitation 0.11 in - - ()
Sea Level Pressure  
Sea Level Pressure 29.96 in    
Wind  
Wind Speed 4 mph (NE)    
Max Wind Speed 12 mph    
Max Gust Speed 20 mph    
Visibility 5 miles    
Events Snow    
Averages and records for this station are not official NWS values.
T = Trace of Precipitation, MM = Missing Value Source: NWS Daily Summary

Daily Weather History Graph

Daily Weather History Graph

Search for Another Location

Airport or City:

Trip Planner

Search our weather history database for the weather conditions in past years. The results will help you decide how hot, cold, wet, or windy it might be!

Date:

Astronomy

Mar. 15, 2013 Rise Set
Actual Time 7:17 AM CDT 7:11 PM CDT
Civil Twilight 6:48 AM CDT 7:41 PM CDT
Nautical Twilight 6:13 AM CDT 8:16 PM CDT
Astronomical Twilight 5:37 AM CDT 8:52 PM CDT
Moon 8:54 AM CDT (3/15) 11:42 PM CDT (3/15)
Length of Visible Light 12h 53m
Length of Day
11h 54m
Waxing Crescent, 15% of the Moon is Illuminated
Mar 15
Waxing Crescent
Mar 19
First Quarter
Mar 27
Full
Apr 2
Last Quarter
Apr 10
New

Hourly Weather History & Observations

Time (CDT) Temp. Windchill Dew Point Humidity Pressure Visibility Wind Dir Wind Speed Gust Speed Precip Events Conditions
12:53 AM 28.9 °F - 23.0 °F 78% 30.01 in 8.0 mi Calm Calm - N/A   Overcast
1:53 AM 28.9 °F - 23.0 °F 78% 29.99 in 8.0 mi Calm Calm - N/A   Overcast
2:53 AM 28.0 °F - 23.0 °F 81% 29.98 in 7.0 mi Calm Calm - N/A   Overcast
3:35 AM 28.4 °F - 23.0 °F 80% 29.92 in 7.0 mi Calm Calm - N/A   Overcast
3:53 AM 28.0 °F - 24.1 °F 85% 29.97 in 7.0 mi Calm Calm - N/A   Overcast
4:53 AM 28.9 °F - 24.1 °F 82% 29.95 in 7.0 mi Calm Calm - N/A   Overcast
5:53 AM 28.9 °F - 25.0 °F 85% 29.98 in 1.8 mi Calm Calm - 0.00 in Snow Light Snow
6:42 AM 28.4 °F - 24.8 °F 86% 29.95 in 1.5 mi Calm Calm - 0.01 in Snow Light Snow
6:53 AM 28.9 °F 25.2 °F 26.1 °F 89% 30.00 in 1.5 mi Variable 3.5 mph - 0.01 in Snow Light Snow
7:08 AM 28.4 °F 23.3 °F 26.6 °F 93% 29.95 in 1.5 mi NNE 4.6 mph - 0.00 in Snow Light Snow
7:29 AM 28.4 °F 24.6 °F 26.6 °F 93% 29.95 in 2.5 mi NNE 3.5 mph - 0.00 in Snow Light Snow
7:41 AM 28.4 °F 22.2 °F 24.8 °F 86% 29.95 in 2.5 mi Variable 5.8 mph - 0.00 in Snow Light Snow
7:50 AM 28.4 °F 20.4 °F 24.8 °F 86% 29.95 in 4.0 mi NNE 8.1 mph - 0.00 in Snow Light Snow
7:53 AM 28.9 °F 22.8 °F 24.1 °F 82% 30.00 in 4.0 mi NNE 5.8 mph - 0.00 in Snow Light Snow
8:26 AM 28.4 °F 19.7 °F 21.2 °F 74% 29.94 in 8.0 mi NE 9.2 mph 19.6 mph 0.00 in   Overcast
8:53 AM 28.0 °F 18.1 °F 21.0 °F 75% 30.01 in 10.0 mi NE 11.5 mph 18.4 mph 0.00 in   Overcast
9:53 AM 27.0 °F 18.7 °F 16.0 °F 63% 30.03 in 10.0 mi NNE 8.1 mph 16.1 mph N/A   Overcast
10:53 AM 28.0 °F 21.7 °F 16.0 °F 61% 30.02 in 10.0 mi Variable 5.8 mph 17.3 mph N/A   Overcast
11:39 AM 28.4 °F 21.2 °F 14.0 °F 55% 29.96 in 10.0 mi Variable 6.9 mph - N/A   Scattered Clouds
11:53 AM 28.9 °F 19.8 °F 14.0 °F 54% 30.01 in 10.0 mi NE 10.4 mph 16.1 mph N/A   Clear
12:53 PM 27.0 °F 18.0 °F 15.1 °F 61% 30.01 in 10.0 mi NE 9.2 mph 16.1 mph N/A   Overcast
1:53 PM 27.0 °F 18.7 °F 15.1 °F 61% 30.00 in 10.0 mi ENE 8.1 mph - N/A   Overcast
2:53 PM 27.0 °F 21.6 °F 14.0 °F 58% 29.99 in 10.0 mi NE 4.6 mph - N/A   Overcast
3:53 PM 25.0 °F 16.3 °F 12.9 °F 60% 29.97 in 10.0 mi NNE 8.1 mph - N/A   Overcast
4:53 PM 25.0 °F 19.3 °F 12.0 °F 58% 29.97 in 10.0 mi Variable 4.6 mph - N/A   Overcast
5:53 PM 24.1 °F 16.0 °F 12.9 °F 62% 29.96 in 10.0 mi NNE 6.9 mph - N/A   Overcast
6:53 PM 23.0 °F 14.7 °F 14.0 °F 68% 29.96 in 10.0 mi NNE 6.9 mph - N/A   Overcast
7:19 PM 21.2 °F 11.7 °F 15.8 °F 80% 29.92 in 2.5 mi NE 8.1 mph - 0.00 in Snow Light Snow
7:28 PM 21.2 °F 13.6 °F 15.8 °F 80% 29.91 in 1.0 mi NNE 5.8 mph - 0.00 in Snow Light Snow
7:53 PM 21.0 °F 13.4 °F 16.0 °F 81% 29.98 in 1.5 mi NNE 5.8 mph - 0.01 in Snow Light Snow
8:14 PM 19.4 °F 9.5 °F 15.8 °F 86% 29.92 in 1.0 mi NNE 8.1 mph - 0.01 in Snow Light Snow
8:29 PM 19.4 °F 11.5 °F 15.8 °F 86% 29.91 in 1.2 mi NE 5.8 mph - 0.03 in Snow Light Snow
8:53 PM 19.0 °F 7.5 °F 14.0 °F 81% 29.97 in 1.0 mi NNE 10.4 mph 16.1 mph 0.03 in Snow Light Snow
9:11 PM 19.4 °F 11.5 °F 14.0 °F 80% 29.91 in 0.8 mi Variable 5.8 mph - 0.01 in Snow Light Snow
9:16 PM 19.4 °F 10.4 °F 14.0 °F 80% 29.92 in 1.0 mi NE 6.9 mph - 0.01 in Snow Light Snow
9:24 PM 19.4 °F 10.4 °F 14.0 °F 80% 29.91 in 1.8 mi NE 6.9 mph - 0.03 in Snow Light Snow
9:53 PM 18.0 °F 7.7 °F 12.9 °F 81% 29.98 in 1.0 mi NE 8.1 mph 17.3 mph 0.03 in Snow Light Snow
10:03 PM 17.6 °F 9.3 °F 12.2 °F 79% 29.92 in 2.0 mi Variable 5.8 mph - 0.00 in Snow Light Snow
10:13 PM 17.6 °F 7.3 °F 12.2 °F 79% 29.92 in 4.0 mi NNE 8.1 mph - 0.00 in Snow Light Snow
10:53 PM 18.0 °F 11.1 °F 12.0 °F 78% 29.98 in 6.0 mi NE 4.6 mph - 0.01 in Snow Light Snow
11:36 PM 17.6 °F 8.2 °F 12.2 °F 79% 29.92 in 2.0 mi NE 6.9 mph - 0.01 in Snow Light Snow
11:44 PM 17.6 °F 9.3 °F 12.2 °F 79% 29.93 in 1.0 mi NE 5.8 mph - 0.01 in Snow Light Snow
11:53 PM 17.1 °F 7.6 °F 12.9 °F 84% 29.99 in 1.0 mi NE 6.9 mph - 0.02 in Snow Light Snow